{"data":{"norad_id":65192,"intl_designator":"2025-175U","name":"STARLINK-34955","alt_names":[],"object_type":"PAYLOAD","status":"ACTIVE","operator":null,"country":"US","launch_date":"2025-08-14","launch_site_code":"AFWTR","launch_vehicle":null,"mission":null,"orbit_class":"UNKNOWN","rcs_meters":null,"size_class":null,"mass_kg":null,"dimensions":null,"purposes":["comms"],"wikipedia_slug":null,"has_3d_model":false,"image_url":null,"decayed_at":null,"tle_current":{"epoch":"2026-05-25T02:54:04.865760Z","epoch_age_seconds":58496,"freshness":"FRESH","line1":"1 65192U 25175U   26145.12088965  .00006030  00000+0  42156-3 0  9999","line2":"2 65192  97.4525  17.6566 0001880  75.1494 284.9942 15.05658143 44111","mean_motion":15.05658143,"eccentricity":0.000188,"inclination_deg":97.4525,"raan_deg":17.6566,"arg_perigee_deg":75.1494,"mean_anomaly_deg":284.9942,"bstar":0.00042156,"rev_number":4411,"period_min":95.639239670356,"perigee_km":548.18378314935,"apogee_km":550.78856946364,"semimajor_km":6927.6231763065,"source":"CELESTRAK","updated_at":"2026-05-25T13:38:20.716077Z"}}}